STARLINK-1219, 45210

Orbit data source: Space-Track

STARLINK-1219, 45210 is a payload satellite owned by SpaceX/Seattle (US) in LEO that was launched on Mon, 17 Feb 2020 UTC via an FALCON 9 launch vehicle from the Air Force Eastern Test Range (AFETR). Payload-class satellites include a variety of spacecraft equipped with specific instruments for various scientific and technological missions. These include communications satellites like Starlink; space stations such as the ISS; scientific satellites like the Hubble; Earth observation satellites from companies like Planet Labs, Umbra, and HawkEye 360; GPS; miniature CubeSats for education and research; and military/defense satellites.

Loading next visibility...
Identifier
45210, 2020-012AJ
Orbit
LEO
Last TLE update
3 hours ago
Origin
Manufacturer
SpaceX/Seattle
Mission
Partially operational Commercial Communications
Bus & Motor
STARLINK, Unknown motor
Mass
260 kg wet, ~248 kg dry
Launch date (UTC)
2020-02-17 (5 years ago)
Launch vehicle
FALCON 9
Launch site
Air Force Eastern Test Range (AFETR)
Object type
Payload
Rocket body
Debris
Shape & HBR
Box + 1 Pan, 4.4 m
Radar Cross Section
13.562 m², Large (>1 m²)

Expand to show TLE details & history

TLE from 3 hours ago
0 STARLINK-1219
1 45210U 20012AJ  25199.58335648  .00172343  00000-0  75823-3 0  9993
2 45210  53.0455 308.7342 0006907 259.7626 208.1992 15.83528409299570
Epoch: 2025-07-18T14:00Z
TLE epoch observation values (Epoch: 2025-07-18T14:00:01.999Z)
Latitude
49.64491°
Longitude
-79.59485°
Altitude
330.254 km
Speed
7.714 km/s
True Right ascension
04h 28m 11s
True Declination
49° 27' 51"
Sunlit
Object was in daylight at epoch
Visualization orbit readout
Latitude
20.83798°
Longitude
-35.12711°
Altitude
322.205 km
Speed
7.717 km/s
Apparent Right ascension
10h 31m 56s
Apparent Declination
-34° 27' 31"
Sunlit
Object is in daylight
Visualization observer readout
Local Sidereal Time
05:59:55
Azimuth
129.585° SE
Elevation
-7.25°
Doppler factor
1
Orbital elements
Apogee altitude
325.38 km
Perigee altitude
316.126 km
Semi-major axis
6,698.89 km
Eccentricity
0.00069
Inclination
53.0455°
RAAN
308.7342°
Arg. of periapsis
259.7626°
True anomaly
208.16183°
Mean anomaly
208.1992°
Eccentric anomaly
208.18051°
Mean motion
3.95858 °/min
Orbital period
90.94 mins
BSTAR
0.00075823
Loading maneuver chart data...
Loading SW <> Apogee altitude chart data...
|